Regional Weather Roundup
Issued by NWS Newport/Morehead, NC

Current Version | Previous Version | Graphics & Text | Print | Product List | Glossary Off
Versions: 1 2 3 4 5 6 7 8 9 10 11 12 13 14 15 16 17 18 19 20 21 22 23 24 25 26 27 28 29 30 31 32 33 34 35 36 37 38 39 40 41 42 43 44 45 46 47 48 49 50

000
ASUS42 KMHX 301622
RWRMHX
WEATHER ROUNDUP FOR EASTERN NORTH CAROLINA
NATIONAL WEATHER SERVICE NEWPORT/MOREHEAD CITY NC
1200 PM EDT THU OCT 30 2014

NOTE: "FAIR" INDICATES FEW OR NO CLOUDS BELOW 12,000 FEET
WITH NO SIGNIFICANT WEATHER AND/OR OBSTRUCTIONS TO VISIBILITY

NCZ015>017-031-032-045>047-102-103-301700-
NORTH COAST

CITY           SKY/WX    TMP DP  RH WIND       PRES   REMARKS
EDENTON        MOSUNNY   63  54  72 N10       30.03F
ELIZABETH CITY MOSUNNY   64  53  67 N10       30.03S
KITTY HAWK     PTSUNNY   65  50  59 NE8       30.00F
MANTEO         PTSUNNY   65  51  59 NE13G20   30.01F

$$

NCZ045>047-081-094-103-104-301700-
CENTRAL COAST

CITY           SKY/WX    TMP DP  RH WIND       PRES   REMARKS
FRISCO         PTSUNNY   64  55  72 NE9G20    29.98F
SWANQUARTER      N/A     66 N/A N/A N5G17     29.97S

$$

NCZ095-097-098-100-101-301700-
SOUTHERN COAST

CITY           SKY/WX    TMP DP  RH WIND       PRES   REMARKS
BEAUFORT       MOSUNNY   66  55  67 NE16G25   29.99F
CEDAR ISLAND     N/A     64 N/A N/A N17       30.03F
JACKSONVILLE   MOSUNNY   65  51  60 NE13      30.00F
PINEY ISLAND   PTSUNNY   66  53  63 NE14      30.00F
WILMINGTON     MOSUNNY   65  51  60 NE12      30.01R


$$

NCZ011>013-027>030-043-044-078>080-089-090>093-098-301700-
COASTAL PLAIN

CITY           SKY/WX    TMP DP  RH WIND       PRES   REMARKS
AHOSKIE        NOT AVBL
CLINTON        SUNNY     67  47  49 N10       30.03F
ELIZABETHTOWN  SUNNY     66  47  49 E5        30.02F
GOLDSBORO      SUNNY     66  52  59 N15G21    30.02S
GREENVILLE     SUNNY     63  50  63 NE9       30.06S
HAVELOCK       PTSUNNY   65  54  67 NE12      30.02S
KENANSVILLE    SUNNY     65  45  46 NE6       30.03F
KINSTON        SUNNY     64  48  55 NE12      30.04S
NEW BERN       MOSUNNY   66  54  65 NE12      30.03S
RICHLANDS      SUNNY     64  46  52 NE13      30.02F
ROCKY MOUNT    SUNNY     64  47  53 NE13      30.05S
WASHINGTON     MOSUNNY   63  50  63 NE8       30.03S
WHITEVILLE     SUNNY     66  49  54 N6        30.01S

$$

AMZ130-135-150-152-154-156-158-170-250-252-270-ANZ085-086-088-633-658-670-301700-
MARINE OBSERVATIONS

STATION/POSITION TIME  TEMP    WIND        PRES    WAVE   SWELL
                       AIR SEA DIR/SP/G            HT/PER HT/PER
                 (UTC) (F)     (DEG/KT/KT) (MB)    (FT/S) (FT/S)
CHESAPEAKE LIGHT 1600   60     360/ 12/ 13 1017.4
64 E VA BEACH    1600   63 67   20/ 14/ 17 1015.5    4/ 6   2/14
DUCK             1600   62 67   10/ 13/ 15 1015.4
2 E DUCK         NOT AVBL
10 NE DUCK       1600      67                N/A     4/ 6
OREGON INLET     1600   64 67   30/ 15/ 19 1015.7
13E OREGON INLT  1600      70                N/A     5/ 6
HATTERAS CG      1600   64 70   20/ 16/ 20 1015.6
DIAMOND BUOY     1600   67      10/ 17/ 21 1014.5    4/ 5   2/ 8
17 S OCRACOKE    NOT AVBL
CAPE LOOKOUT     1600   63      30/ 19/ 21 1015.1
BEAUFORT LAB     1600   63 69   10/ 16/ 21 1014.9
30 SE NEW RIVER  1600   65 74   30/ 17/ 19 1014.5    4/ 5
5 SE WRIGHTSVLE  1600   60 71   50/ 14/ 17   N/A
225 S CAPE HAT   1506   77 77  250/  8/ 10 1014.6    2/ 5   2/ 5
41 SE CHARLESTON 1600   69 77   20/ 14/ 14 1014.1    3/ 5

$$



USA.gov is the U.S. government's official web portal to all federal, state and local government web resources and services.